Wind_Speed
3 3 2 1 0 1 1 2 3 4 5 5 6 7 8 7 8 8 9 9 10 9 9 10 11 11 11 10 11 11 10 10 10 9 9 10 10 10 11 11 12 12 12
3 2 1 1 2 2 2 2 3 4 4 5 6 6 8 9 9 9 10 11 11 11 10 11 11 11 12 12 12 12 12 11 11 10 11 11 12 12 12 11 12 12 12
3 3 3 3 3 3 3 4 4 4 5 5 7 8 9 9 10 11 11 12 12 12 12 11 11 11 12 13 13 13 13 13 13 13 13 13 13 13 13 12 12 12 12
3 4 3 4 4 4 4 4 5 5 6 7 8 9 9 10 10 11 12 13 13 13 13 13 13 13 13 14 14 14 14 14 14 14 14 13 14 13 13 12 12 13 13
4 4 4 5 5 5 5 6 6 7 7 8 9 9 10 11 12 12 13 13 14 15 15 15 15 15 14 15 16 15 15 15 15 15 15 15 15 14 14 14 14 14 14
5 5 5 6 6 6 7 7 8 8 8 9 9 10 11 11 12 13 13 14 14 15 15 16 16 16 15 16 16 16 16 15 16 16 17 17 16 16 16 15 15 14 14
5 6 6 7 7 8 9 9 9 8 9 9 10 10 11 12 12 13 14 14 14 15 15 16 16 16 17 17 17 17 17 16 16 16 17 17 17 17 17 17 16 16 15
6 7 8 8 8 8 9 9 9 9 10 10 11 11 12 12 12 13 13 14 14 15 15 16 16 17 17 18 18 18 18 18 18 18 18 18 18 18 17 18 17 17 17
7 8 8 9 9 10 10 10 9 10 10 10 10 11 12 13 13 13 14 14 15 15 16 17 17 17 17 17 18 18 18 18 18 19 19 19 19 18 18 18 18 18 18
8 8 9 10 10 10 10 11 10 11 11 11 12 12 13 13 14 15 15 16 16 17 17 17 17 18 18 18 18 19 19 19 19 19 19 20 20 20 19 19 19 19 18
10 10 11 11 11 11 11 11 11 11 12 12 13 13 14 15 15 16 17 17 18 18 19 19 19 19 19 18 18 19 19 19 19 20 20 20 21 21 21 21 21 20 20
12 12 12 13 12 12 12 12 12 12 13 13 14 15 16 17 17 17 18 18 19 19 20 20 20 19 19 19 19 18 19 19 20 20 20 21 21 21 22 22 21 21 20
13 13 14 14 15 15 15 15 14 14 14 15 16 16 17 17 18 18 19 19 19 20 20 20 20 20 20 20 20 19 19 19 19 20 20 21 22 23 23 23 23 22 21
15 15 15 16 16 16 17 17 16 16 17 17 18 18 18 18 19 19 19 20 20 20 20 20 20 21 21 21 21 21 21 20 19 20 21 22 22 23 23 23 23 23 23
17 17 18 17 17 18 18 19 18 18 19 20 20 20 20 20 20 20 20 20 20 20 21 21 21 20 21 21 21 22 22 21 20 20 22 22 22 23 23 23 24 24 24
18 19 19 19 19 20 20 20 20 20 21 21 20 20 21 21 21 21 20 20 20 20 21 21 21 21 21 21 20 21 22 21 20 21 21 22 22 23 23 23 24 25 26
21 20 20 21 21 21 21 22 22 22 22 22 21 21 21 21 21 21 21 21 21 21 21 22 22 21 21 21 21 21 22 22 22 22 23 23 24 24 24 24 25 25 27
22 22 22 22 22 21 22 23 23 22 23 23 22 22 22 22 21 21 20 21 22 21 22 22 22 21 22 22 22 22 22 22 23 23 23 24 24 24 25 26 26 27 27
22 22 22 22 22 22 22 22 22 22 22 23 22 22 22 22 22 21 21 22 22 21 21 21 22 22 21 22 22 23 23 23 23 24 24 25 25 25 26 26 27 27 27
23 24 24 24 23 24 23 23 23 23 23 23 23 22 22 22 22 22 22 22 22 22 22 22 22 22 22 22 23 23 23 24 24 24 25 25 26 26 26 26 27 26 27
25 25 25 25 24 25 24 25 25 25 25 24 24 23 23 22 23 23 22 22 22 22 21 21 22 22 23 23 23 24 24 24 25 24 25 26 27 27 26 27 27 27 27
26 26 26 26 26 25 25 25 25 25 25 24 24 24 24 23 23 23 22 22 22 21 22 22 22 23 23 24 24 25 25 25 25 25 25 26 27 28 28 27 28 28 27
28 27 27 27 26 25 26 25 25 25 24 24 24 24 24 24 24 23 23 23 22 22 22 23 23 23 24 24 25 25 25 25 25 25 25 25 26 26 27 27 27 27 27
28 28 27 26 26 26 26 26 25 25 25 25 25 25 25 25 25 25 25 24 24 23 23 23 24 24 25 25 26 26 26 25 25 25 25 25 26 26 27 27 26 26 27
28 28 28 27 27 27 27 27 27 27 27 27 27 27 27 27 27 26 26 25 24 24 25 25 25 26 26 26 26 27 27 26 25 25 26 26 27 27 26 26 26 27 27
30 29 28 29 29 29 29 29 30 30 30 29 29 28 28 28 28 27 27 27 26 26 26 26 26 26 26 26 27 27 27 27 27 27 27 27 27 27 26 27 27 27 27
Wind_Direction
75 82 81 93 241 262 260 242 247 244 240 245 248 253 256 257 258 260 258 263 266 263 261 258 256 256 255 254 257 257 258 261 265 266 265 265 263 265 263 261 259 257 254
52 43 15 348 317 294 282 276 283 275 261 255 255 258 261 263 261 261 262 264 266 265 264 262 259 257 258 255 255 257 260 262 264 264 265 265 262 263 267 265 264 259 259
39 28 6 353 335 316 304 293 287 278 270 267 264 260 264 268 268 268 268 270 269 269 269 268 266 261 259 259 255 256 259 261 261 262 263 264 264 264 264 262 263 260 260
8 356 347 341 336 325 309 303 294 286 277 274 272 270 270 272 275 274 274 273 271 268 268 268 270 268 265 261 261 257 259 262 265 264 263 263 264 265 266 265 263 262 262
1 356 344 339 334 327 313 303 295 289 282 278 276 275 276 276 277 277 277 276 273 269 268 269 269 269 270 265 263 261 262 264 266 266 267 266 267 266 267 266 264 264 263
354 346 333 332 329 325 319 310 300 293 288 286 284 280 278 279 279 277 277 278 276 272 272 272 271 269 270 269 267 264 263 262 265 264 265 268 266 266 267 266 265 265 265
341 338 327 320 320 318 318 312 303 295 294 291 291 288 284 283 281 279 280 280 279 275 276 275 276 273 271 269 269 265 263 263 265 265 264 265 266 267 266 266 266 266 266
331 336 331 322 320 317 313 310 302 299 298 297 295 290 287 285 285 283 282 281 280 278 277 277 279 278 274 271 269 268 265 262 263 265 265 264 265 267 266 267 265 264 265
325 326 325 325 322 323 320 315 308 304 299 295 293 291 290 289 288 287 285 283 281 280 277 276 278 277 277 277 274 273 271 267 264 262 263 264 265 266 267 266 265 266 267
317 319 321 322 319 318 318 317 307 304 302 298 296 292 291 290 291 291 288 285 282 279 277 276 277 276 276 276 274 273 272 269 268 264 263 263 264 265 266 267 267 267 268
310 312 313 317 316 312 312 314 309 300 299 298 297 294 292 290 289 289 289 287 285 283 279 277 277 276 276 275 274 273 273 271 269 266 265 266 265 266 265 267 269 267 268
303 307 309 308 308 307 306 307 308 306 301 299 296 293 292 291 290 289 289 288 286 285 283 281 279 278 276 276 276 275 274 274 271 268 265 266 266 266 267 268 269 268 268
299 301 301 299 300 305 305 302 301 301 303 302 301 297 296 293 290 289 287 287 286 285 284 282 280 278 278 276 275 273 273 273 272 269 267 265 266 267 267 267 268 267 267
298 298 298 298 299 302 305 305 297 298 300 300 300 297 295 293 291 289 287 286 286 285 283 282 280 279 278 278 276 273 272 272 273 272 270 267 266 267 266 267 267 267 266
295 296 297 297 296 299 300 302 301 297 299 298 297 295 293 292 291 289 287 285 285 284 282 281 280 280 279 278 278 275 275 273 271 273 273 271 268 267 264 265 266 267 268
293 293 294 295 295 296 296 296 296 298 297 296 295 293 293 292 291 289 286 285 284 282 281 281 282 281 279 277 278 278 277 275 274 273 273 273 271 269 264 263 265 268 268
290 288 290 293 293 293 293 292 293 294 297 297 297 294 293 293 292 290 287 285 283 280 280 282 282 280 279 278 277 279 278 276 274 274 273 274 273 272 268 266 266 267 269
293 290 289 292 293 293 293 292 292 293 294 295 298 297 294 293 291 290 289 286 283 282 281 283 283 279 278 278 278 279 279 278 277 275 274 274 274 274 272 269 268 267 268
294 293 292 290 292 293 293 293 292 293 294 294 295 296 295 292 291 290 291 288 286 284 282 282 282 280 278 277 278 279 280 280 280 278 275 274 273 273 272 271 269 269 268
293 292 290 291 290 291 291 293 293 293 293 292 293 295 295 293 291 289 290 289 286 283 282 280 280 279 277 277 279 279 281 282 281 281 278 275 274 273 272 271 270 271 271
291 292 291 292 291 289 290 291 291 291 292 292 292 293 292 292 291 289 289 287 286 284 282 281 279 278 278 278 279 280 281 284 284 283 281 278 276 276 275 273 272 271 271
291 292 292 294 293 290 290 290 290 290 291 292 292 290 290 290 290 289 287 286 286 285 283 281 280 280 280 280 280 280 280 282 285 284 283 281 278 278 277 276 274 273 272
289 291 291 291 292 292 292 291 289 290 291 291 291 290 289 288 289 287 286 286 286 286 284 281 281 280 280 280 281 282 281 283 284 285 284 283 282 279 277 275 275 274 273
286 288 289 289 289 291 291 290 290 289 289 289 289 290 289 287 287 286 285 285 284 284 284 284 282 282 281 281 280 281 282 283 284 284 284 283 283 282 281 278 277 276 274
286 286 287 287 290 290 289 288 288 289 288 287 286 287 289 286 286 285 284 284 284 282 282 285 286 282 279 280 281 282 283 283 284 283 282 283 283 282 281 279 278 278 277
283 283 285 287 288 289 287 286 287 288 287 286 286 286 286 285 285 284 284 284 284 282 282 283 285 285 281 280 281 282 284 284 283 282 281 281 280 279 278 278 277 277 277
Height
5903 5903 5902 5901 5901 5901 5900 5900 5899 5899 5899 5899 5899 5899 5899 5899 5899 5899 5898 5899 5899 5898 5898 5899 5899 5899 5900 5900 5900 5900 5900 5900 5900 5900 5900 5900 5900 5900 5899 5899 5899 5899 5900
5904 5903 5902 5901 5901 5900 5900 5899 5899 5898 5898 5898 5898 5898 5898 5898 5897 5897 5897 5897 5897 5897 5897 5897 5897 5897 5897 5897 5897 5897 5898 5898 5898 5898 5898 5897 5897 5897 5897 5897 5897 5897 5897
5904 5903 5902 5901 5900 5900 5899 5899 5898 5897 5897 5897 5897 5896 5896 5896 5896 5895 5895 5894 5894 5894 5894 5894 5894 5894 5894 5894 5894 5894 5895 5895 5895 5895 5895 5895 5894 5894 5894 5894 5894 5894 5894
5904 5903 5902 5901 5900 5899 5899 5898 5897 5896 5896 5896 5895 5895 5894 5894 5894 5893 5893 5892 5892 5892 5892 5892 5891 5891 5891 5891 5891 5891 5891 5891 5891 5892 5892 5892 5892 5892 5891 5891 5891 5892 5892
5904 5903 5902 5901 5899 5899 5898 5897 5896 5895 5894 5894 5893 5893 5892 5892 5891 5891 5890 5890 5889 5889 5888 5888 5888 5888 5888 5887 5887 5888 5888 5888 5888 5888 5888 5888 5888 5888 5888 5888 5888 5888 5889
5903 5902 5901 5900 5899 5898 5897 5895 5894 5893 5892 5892 5891 5891 5890 5889 5889 5889 5888 5887 5886 5886 5886 5885 5885 5884 5884 5884 5884 5884 5885 5885 5885 5885 5885 5885 5885 5885 5885 5884 5885 5885 5885
5903 5902 5900 5899 5898 5896 5895 5893 5892 5891 5890 5890 5889 5888 5887 5887 5886 5886 5885 5884 5884 5883 5882 5882 5881 5881 5881 5881 5881 5880 5881 5881 5881 5880 5881 5881 5881 5881 5881 5881 5881 5881 5882
5902 5901 5899 5898 5896 5895 5893 5891 5890 5889 5888 5887 5887 5886 5885 5885 5883 5882 5882 5881 5880 5880 5879 5879 5878 5877 5877 5877 5877 5876 5876 5876 5876 5876 5876 5877 5877 5877 5877 5877 5877 5878 5878
5901 5900 5898 5897 5895 5894 5892 5890 5888 5887 5886 5885 5884 5883 5882 5881 5880 5879 5878 5878 5877 5876 5876 5875 5874 5874 5873 5873 5872 5872 5872 5872 5872 5872 5872 5872 5873 5873 5873 5873 5873 5873 5874
5900 5898 5897 5895 5894 5892 5890 5888 5886 5885 5884 5883 5882 5880 5880 5878 5877 5876 5875 5874 5873 5873 5872 5871 5870 5870 5869 5868 5868 5868 5867 5867 5867 5867 5867 5868 5868 5868 5869 5869 5869 5869 5869
5898 5897 5895 5893 5892 5890 5888 5886 5884 5883 5882 5880 5879 5878 5876 5875 5874 5873 5871 5871 5870 5868 5867 5866 5866 5865 5864 5864 5863 5863 5862 5862 5862 5862 5863 5863 5863 5863 5864 5864 5864 5864 5865
5896 5895 5893 5891 5889 5887 5885 5884 5882 5880 5879 5878 5876 5874 5873 5871 5870 5869 5867 5866 5865 5864 5863 5861 5861 5860 5859 5859 5858 5858 5858 5857 5857 5857 5857 5858 5858 5858 5858 5859 5859 5859 5859
5894 5892 5890 5888 5886 5884 5882 5881 5879 5878 5876 5874 5872 5871 5869 5867 5866 5864 5863 5861 5860 5859 5858 5856 5856 5855 5854 5853 5853 5853 5852 5852 5852 5852 5852 5852 5852 5853 5853 5853 5853 5853 5854
5891 5889 5887 5885 5883 5881 5879 5877 5875 5874 5872 5870 5868 5866 5864 5863 5861 5860 5858 5857 5856 5854 5853 5852 5851 5850 5849 5848 5848 5847 5847 5847 5847 5847 5847 5846 5847 5847 5847 5847 5847 5848 5848
5887 5885 5883 5881 5879 5877 5876 5873 5871 5869 5868 5865 5864 5862 5860 5858 5857 5855 5853 5852 5851 5849 5848 5847 5846 5845 5844 5843 5842 5842 5841 5841 5841 5841 5841 5841 5841 5841 5841 5841 5841 5842 5842
5883 5881 5879 5877 5875 5873 5871 5869 5867 5865 5863 5861 5859 5857 5855 5853 5852 5850 5848 5847 5845 5844 5843 5841 5840 5839 5838 5838 5837 5836 5836 5835 5835 5835 5835 5835 5835 5835 5834 5835 5835 5835 5835
5878 5876 5874 5872 5870 5868 5866 5864 5862 5860 5858 5856 5854 5852 5849 5847 5846 5844 5842 5841 5840 5838 5837 5836 5835 5834 5833 5832 5832 5831 5830 5829 5829 5829 5829 5829 5829 5828 5828 5828 5828 5828 5828
5872 5870 5868 5867 5864 5862 5861 5859 5857 5855 5853 5851 5849 5846 5844 5842 5840 5838 5836 5835 5834 5833 5832 5830 5829 5828 5828 5827 5826 5826 5825 5824 5823 5823 5822 5822 5822 5821 5821 5821 5821 5821 5821
5867 5865 5862 5861 5859 5857 5855 5853 5851 5849 5847 5845 5843 5841 5838 5836 5834 5832 5831 5829 5828 5827 5826 5825 5824 5822 5822 5821 5820 5820 5819 5818 5817 5816 5816 5815 5815 5814 5814 5814 5813 5813 5813
5862 5859 5857 5855 5852 5850 5848 5846 5845 5843 5841 5840 5837 5835 5833 5830 5828 5826 5825 5823 5822 5821 5820 5819 5818 5817 5816 5815 5814 5813 5813 5812 5810 5809 5808 5808 5807 5807 5806 5806 5806 5806 5806
5856 5853 5851 5848 5846 5844 5842 5841 5839 5837 5835 5833 5831 5829 5827 5825 5823 5821 5819 5817 5816 5815 5814 5812 5812 5811 5810 5809 5808 5807 5806 5805 5803 5802 5801 5800 5800 5799 5798 5798 5798 5798 5798
5849 5847 5845 5842 5840 5838 5836 5834 5833 5831 5829 5827 5825 5823 5821 5819 5817 5815 5813 5811 5810 5809 5808 5806 5805 5804 5803 5802 5801 5800 5799 5798 5797 5796 5794 5793 5792 5791 5790 5790 5790 5790 5790
5842 5839 5837 5835 5833 5831 5829 5827 5825 5824 5822 5820 5818 5816 5814 5812 5810 5808 5807 5805 5804 5802 5801 5800 5799 5798 5797 5796 5795 5793 5792 5791 5789 5788 5786 5785 5784 5783 5783 5782 5782 5782 5782
5834 5832 5830 5828 5826 5824 5822 5820 5818 5816 5814 5813 5811 5809 5807 5805 5803 5802 5800 5799 5797 5796 5795 5793 5792 5791 5790 5789 5788 5786 5785 5783 5782 5780 5779 5778 5776 5775 5774 5774 5774 5774 5773
5826 5824 5822 5820 5818 5817 5815 5813 5811 5808 5806 5804 5803 5801 5799 5798 5796 5794 5793 5792 5790 5789 5787 5786 5785 5783 5782 5781 5780 5779 5777 5775 5774 5772 5771 5769 5768 5767 5766 5766 5765 5766 5765
5818 5816 5815 5813 5810 5808 5807 5804 5802 5800 5798 5796 5795 5793 5791 5790 5788 5786 5785 5784 5783 5781 5780 5778 5777 5775 5774 5773 5771 5770 5769 5767 5766 5764 5762 5761 5759 5758 5758 5757 5757 5757 5757